TimeCDT,TemperatureF,Dew PointF,Humidity,Sea Level PressureIn,VisibilityMPH,Wind Direction,Wind SpeedMPH,Gust SpeedMPH,PrecipitationIn,Events,Conditions,WindDirDegrees,DateUTC
12:15 AM,66.2,64.4,94,30.13,10.0,Calm,Calm,-,N/A,,Clear,0,2013-09-05 05:15:00
12:35 AM,68.0,64.4,88,30.13,10.0,Calm,Calm,-,N/A,,Clear,0,2013-09-05 05:35:00
12:55 AM,66.2,62.6,88,30.13,10.0,Calm,Calm,-,N/A,,Clear,0,2013-09-05 05:55:00
1:15 AM,64.4,62.6,94,30.13,10.0,Calm,Calm,-,N/A,,Clear,0,2013-09-05 06:15:00
1:35 AM,66.2,62.6,88,30.13,10.0,Calm,Calm,-,N/A,,Clear,0,2013-09-05 06:35:00
1:55 AM,66.2,62.6,88,30.14,10.0,Calm,Calm,-,N/A,,Clear,0,2013-09-05 06:55:00
2:15 AM,64.4,60.8,88,30.14,10.0,Calm,Calm,-,N/A,,Clear,0,2013-09-05 07:15:00
2:35 AM,66.2,62.6,88,30.14,10.0,Calm,Calm,-,N/A,,Clear,0,2013-09-05 07:35:00
2:55 AM,66.2,62.6,88,30.13,10.0,SSE,3.5,-,N/A,,Clear,160,2013-09-05 07:55:00
3:15 AM,66.2,62.6,88,30.14,-9999.0,Calm,Calm,-,N/A,,Unknown,0,2013-09-05 08:15:00
3:35 AM,66.2,64.4,94,30.14,10.0,Calm,Calm,-,N/A,,Clear,0,2013-09-05 08:35:00
3:55 AM,68.0,64.4,88,30.15,10.0,Calm,Calm,-,N/A,,Clear,0,2013-09-05 08:55:00
4:15 AM,66.2,64.4,94,30.15,10.0,Calm,Calm,-,N/A,,Clear,0,2013-09-05 09:15:00
4:35 AM,66.2,64.4,94,30.15,10.0,Calm,Calm,-,N/A,,Clear,0,2013-09-05 09:35:00
4:55 AM,68.0,64.4,88,30.15,10.0,South,4.6,-,N/A,,Clear,190,2013-09-05 09:55:00
5:15 AM,68.0,64.4,88,30.15,10.0,Calm,Calm,-,N/A,,Clear,0,2013-09-05 10:15:00
5:35 AM,68.0,64.4,88,30.16,10.0,Calm,Calm,-,N/A,,Clear,0,2013-09-05 10:35:00
5:55 AM,66.2,64.4,94,30.16,10.0,Calm,Calm,-,N/A,,Clear,0,2013-09-05 10:55:00
6:15 AM,66.2,64.4,94,30.16,10.0,North,4.6,-,N/A,,Clear,10,2013-09-05 11:15:00
6:35 AM,68.0,64.4,88,30.17,10.0,NNE,5.8,-,N/A,,Clear,20,2013-09-05 11:35:00
6:55 AM,68.0,64.4,88,30.18,10.0,NNE,3.5,-,N/A,,Clear,20,2013-09-05 11:55:00
7:15 AM,68.0,64.4,88,30.18,10.0,Calm,Calm,-,N/A,,Partly Cloudy,0,2013-09-05 12:15:00
7:35 AM,69.8,66.2,88,30.18,10.0,Calm,Calm,-,N/A,,Scattered Clouds,0,2013-09-05 12:35:00
7:55 AM,69.8,66.2,88,30.19,10.0,Calm,Calm,-,N/A,,Partly Cloudy,0,2013-09-05 12:55:00
8:15 AM,73.4,68.0,83,30.19,10.0,Calm,Calm,-,N/A,,Clear,0,2013-09-05 13:15:00
8:35 AM,75.2,66.2,73,30.19,10.0,NNE,4.6,-,N/A,,Clear,20,2013-09-05 13:35:00
8:55 AM,77.0,64.4,65,30.20,10.0,NNW,4.6,-,N/A,,Partly Cloudy,340,2013-09-05 13:55:00
9:15 AM,78.8,64.4,61,30.20,10.0,NW,5.8,-,N/A,,Partly Cloudy,320,2013-09-05 14:15:00
9:35 AM,78.8,62.6,57,30.21,10.0,NW,9.2,-,N/A,,Clear,310,2013-09-05 14:35:00
9:55 AM,80.6,62.6,54,30.21,10.0,NW,6.9,-,N/A,,Clear,320,2013-09-05 14:55:00
10:15 AM,82.4,62.6,51,30.21,10.0,NNW,4.6,-,N/A,,Clear,330,2013-09-05 15:15:00
10:35 AM,82.4,64.4,54,30.21,10.0,North,6.9,-,N/A,,Clear,10,2013-09-05 15:35:00
10:55 AM,82.4,64.4,54,30.20,10.0,North,4.6,-,N/A,,Clear,10,2013-09-05 15:55:00
11:15 AM,84.2,62.6,48,30.20,10.0,Calm,Calm,-,N/A,,Clear,0,2013-09-05 16:15:00
11:35 AM,84.2,64.4,51,30.20,10.0,Variable,4.6,-,N/A,,Clear,0,2013-09-05 16:35:00
11:55 AM,86.0,64.4,48,30.20,10.0,NE,6.9,-,N/A,,Clear,40,2013-09-05 16:55:00
12:15 PM,86.0,62.6,45,30.19,9.0,Variable,3.5,-,N/A,,Clear,0,2013-09-05 17:15:00
12:35 PM,86.0,64.4,48,30.18,10.0,Variable,3.5,-,N/A,,Clear,0,2013-09-05 17:35:00
12:55 PM,86.0,64.4,48,30.18,10.0,Variable,4.6,-,N/A,,Clear,0,2013-09-05 17:55:00
1:15 PM,87.8,64.4,46,30.17,10.0,SE,5.8,-,N/A,,Clear,140,2013-09-05 18:15:00
1:35 PM,87.8,62.6,43,30.17,10.0,South,5.8,-,N/A,,Clear,170,2013-09-05 18:35:00
1:55 PM,87.8,62.6,43,30.17,10.0,Variable,4.6,-,N/A,,Clear,0,2013-09-05 18:55:00
2:15 PM,87.8,62.6,43,30.16,10.0,East,5.8,-,N/A,,Clear,80,2013-09-05 19:15:00
2:35 PM,89.6,62.6,40,30.16,10.0,Variable,5.8,-,N/A,,Clear,0,2013-09-05 19:35:00
2:55 PM,89.6,62.6,40,30.15,10.0,SSW,6.9,-,N/A,,Partly Cloudy,200,2013-09-05 19:55:00
3:15 PM,89.6,64.4,43,30.14,6.0,Calm,Calm,-,N/A,,Haze,0,2013-09-05 20:15:00
3:35 PM,89.6,62.6,40,30.14,10.0,Variable,3.5,-,N/A,,Scattered Clouds,0,2013-09-05 20:35:00
3:55 PM,87.8,62.6,43,30.14,10.0,South,5.8,-,N/A,,Clear,170,2013-09-05 20:55:00
4:15 PM,87.8,62.6,43,30.13,10.0,Calm,Calm,-,N/A,,Clear,0,2013-09-05 21:15:00
4:35 PM,89.6,64.4,43,30.13,10.0,Variable,5.8,-,N/A,,Clear,0,2013-09-05 21:35:00
4:55 PM,87.8,62.6,43,30.13,10.0,SE,5.8,-,N/A,,Partly Cloudy,130,2013-09-05 21:55:00
5:15 PM,89.6,64.4,43,30.13,10.0,ENE,4.6,-,N/A,,Mostly Cloudy,70,2013-09-05 22:15:00
5:35 PM,87.8,64.4,46,30.13,10.0,SE,4.6,-,N/A,,Scattered Clouds,140,2013-09-05 22:35:00
5:55 PM,87.8,64.4,46,30.13,10.0,South,9.2,-,N/A,,Clear,180,2013-09-05 22:55:00
6:15 PM,87.8,62.6,43,30.13,10.0,SSW,3.5,-,N/A,,Clear,210,2013-09-05 23:15:00
6:35 PM,87.8,64.4,46,30.12,10.0,South,4.6,-,N/A,,Clear,180,2013-09-05 23:35:00
6:55 PM,86.0,64.4,48,30.12,10.0,Calm,Calm,-,N/A,,Clear,0,2013-09-05 23:55:00
7:15 PM,84.2,64.4,51,30.11,10.0,Calm,Calm,-,N/A,,Clear,0,2013-09-06 00:15:00
7:35 PM,80.6,66.2,61,30.11,10.0,Calm,Calm,-,N/A,,Clear,0,2013-09-06 00:35:00
7:55 PM,78.8,64.4,61,30.12,10.0,Calm,Calm,-,N/A,,Clear,0,2013-09-06 00:55:00
8:15 PM,75.2,66.2,73,30.12,10.0,Calm,Calm,-,N/A,,Clear,0,2013-09-06 01:15:00
8:35 PM,75.2,68.0,78,30.13,10.0,Calm,Calm,-,N/A,,Clear,0,2013-09-06 01:35:00
8:55 PM,73.4,66.2,78,30.13,10.0,Calm,Calm,-,N/A,,Clear,0,2013-09-06 01:55:00
9:15 PM,75.2,66.2,73,30.14,10.0,Calm,Calm,-,N/A,,Clear,0,2013-09-06 02:15:00
9:35 PM,71.6,66.2,83,30.13,10.0,Calm,Calm,-,N/A,,Clear,0,2013-09-06 02:35:00
9:55 PM,73.4,66.2,78,30.13,10.0,Calm,Calm,-,N/A,,Clear,0,2013-09-06 02:55:00
10:15 PM,71.6,66.2,83,30.13,10.0,Calm,Calm,-,N/A,,Clear,0,2013-09-06 03:15:00
10:35 PM,71.6,66.2,83,30.13,10.0,Calm,Calm,-,N/A,,Clear,0,2013-09-06 03:35:00
10:55 PM,69.8,66.2,88,30.13,10.0,Calm,Calm,-,N/A,,Clear,0,2013-09-06 03:55:00
11:15 PM,73.4,66.2,78,30.13,10.0,Calm,Calm,-,N/A,,Clear,0,2013-09-06 04:15:00
11:35 PM,71.6,66.2,83,30.12,10.0,Calm,Calm,-,N/A,,Clear,0,2013-09-06 04:35:00
11:55 PM,68.0,64.4,88,30.12,10.0,Calm,Calm,-,N/A,,Clear,0,2013-09-06 04:55:00